{"data":{"norad_id":59662,"intl_designator":"2024-084J","name":"STARLINK-31886","alt_names":[],"object_type":"PAYLOAD","status":"ACTIVE","operator":null,"country":"US","launch_date":"2024-05-06","launch_site_code":"AFETR","launch_vehicle":null,"mission":null,"orbit_class":"UNKNOWN","rcs_meters":null,"size_class":null,"mass_kg":null,"dimensions":null,"purposes":["comms"],"wikipedia_slug":null,"has_3d_model":false,"image_url":null,"decayed_at":null,"tle_current":{"epoch":"2026-05-24T21:06:43.322112Z","epoch_age_seconds":85768,"freshness":"FRESH","line1":"1 59662U 24084J   26144.87966808 -.00001827  00000+0 -56897-4 0  9993","line2":"2 59662  43.0001 331.6735 0000645 303.8632  56.2158 15.27583530116022","mean_motion":15.2758353,"eccentricity":6.45e-5,"inclination_deg":43.0001,"raan_deg":331.6735,"arg_perigee_deg":303.8632,"mean_anomaly_deg":56.2158,"bstar":-5.6897e-5,"rev_number":11602,"period_min":94.266530878347,"perigee_km":482.59598014867,"apogee_km":483.48107179152,"semimajor_km":6861.1755259701,"source":"CELESTRAK","updated_at":"2026-05-25T13:38:19.019243Z"}}}